Wind_Speed
82 82 82 83 84 85 86 87 88 89 90 91 91 90 91 91 92 94 96 97 96 93 93 96 96 96 98 97 96 95 93 92 91 89 88 87 85 84 84 84 84 84 85 85 85 85 85 84 83 82 83 83 84 84 83 83 82 82 82 82 83 83 83 83 84 85 86 87 88 88 88 88 87 88 88 88 88 87 86 86 86 87 87 87 88 90
81 82 82 83 84 85 86 87 89 90 92 92 92 91 93 94 94 96 98 99 99 98 96 98 98 98 98 98 96 95 94 93 91 90 88 87 86 85 85 85 86 86 87 87 88 88 88 88 88 87 86 86 87 87 86 86 86 85 85 84 84 85 85 85 85 86 87 88 89 89 90 90 90 90 90 91 91 90 89 88 89 89 89 89 90 91
82 83 84 84 85 86 87 89 90 92 93 93 93 94 96 98 98 98 100 101 102 102 100 100 100 99 98 97 96 94 93 93 92 91 90 89 88 88 89 89 89 90 90 91 91 92 92 92 92 92 91 91 91 91 90 90 90 89 89 88 87 87 87 88 88 88 89 90 91 91 92 92 92 92 93 93 93 93 92 92 92 92 92 92 92 92
84 85 85 86 87 88 90 90 91 92 94 96 97 98 100 101 102 101 100 101 102 103 103 102 101 100 98 97 96 95 95 95 94 94 93 92 91 91 92 92 92 93 93 94 94 95 95 96 96 96 96 96 96 95 95 95 95 94 94 93 92 91 90 90 91 91 92 92 93 94 94 94 95 95 96 96 96 96 95 95 94 94 94 94 94 93
86 87 87 87 88 90 91 91 92 93 96 100 102 102 102 103 104 104 103 102 101 102 104 104 102 99 99 99 97 96 97 97 97 96 96 96 96 96 95 95 95 95 95 96 96 97 97 98 98 99 99 99 99 99 99 99 99 99 99 98 97 96 95 94 94 95 95 95 96 97 97 97 98 98 98 99 98 99 99 97 96 96 96 96 96 96
87 88 89 89 90 91 92 93 95 96 98 101 102 103 104 103 104 105 106 105 103 100 100 103 103 98 98 100 99 98 99 99 99 98 99 100 100 100 100 99 99 99 99 99 99 99 99 99 99 100 100 101 101 102 102 102 103 103 103 102 102 101 101 100 99 98 98 98 99 99 100 100 101 101 101 101 101 102 102 101 99 99 99 99 99 98
89 90 90 91 92 93 95 97 99 99 99 100 101 103 104 105 105 106 106 106 104 101 99 104 106 102 98 99 101 101 102 101 100 101 101 102 101 101 101 100 100 100 100 100 101 101 101 101 101 101 101 101 102 102 103 103 104 105 105 105 106 105 105 105 104 103 102 102 102 102 103 103 103 104 104 104 104 104 105 104 102 102 101 101 101 101
91 91 92 92 94 96 98 99 100 99 99 100 102 103 105 106 106 105 105 104 104 102 101 105 109 108 104 102 103 105 104 103 102 102 102 102 102 102 102 101 100 100 99 99 99 99 99 100 101 101 102 102 102 103 103 104 104 105 106 107 107 108 108 108 108 108 107 106 106 105 106 106 106 106 107 107 107 107 108 107 106 106 105 104 104 104
92 92 93 94 95 97 99 99 100 100 101 102 104 105 106 106 104 103 103 103 104 105 105 107 111 112 109 105 105 106 105 104 102 101 101 100 100 101 101 101 101 101 100 100 99 98 98 98 99 100 101 102 102 103 103 104 104 105 106 107 107 108 109 110 110 111 111 110 110 109 109 109 109 109 110 110 109 110 111 110 109 110 109 107 107 108
92 93 94 95 95 96 98 101 102 103 104 105 106 105 105 104 103 103 104 105 106 108 109 109 112 114 111 107 106 106 104 102 100 98 97 96 96 96 96 97 97 98 99 100 100 100 100 99 99 99 100 101 102 103 104 104 105 105 106 106 107 108 109 110 111 112 113 113 113 113 112 112 112 112 112 113 113 113 113 113 112 113 113 112 111 110
94 95 95 95 95 97 99 103 105 106 106 107 106 104 102 101 102 103 105 106 107 108 109 110 111 112 111 107 105 105 103 100 98 96 96 95 94 94 93 94 94 95 96 97 98 99 100 100 100 101 101 101 102 103 104 105 105 106 106 106 106 107 108 109 110 111 112 113 114 115 115 114 114 114 114 115 115 115 116 116 115 115 116 116 115 113
96 96 96 96 96 97 99 103 106 107 107 106 105 104 103 102 101 102 103 104 105 106 106 106 106 107 107 106 105 103 101 99 97 96 96 95 94 93 92 92 92 92 93 94 95 96 97 99 100 101 101 102 102 103 103 104 105 106 107 107 107 107 108 108 109 110 111 112 113 115 115 116 116 116 116 115 116 116 117 117 117 117 117 118 118 116
97 96 96 96 97 98 99 102 104 105 105 104 104 104 104 102 100 99 98 98 97 97 98 99 100 102 103 102 102 101 99 97 96 94 93 92 91 89 89 89 88 88 89 89 91 92 93 95 97 98 100 101 102 103 103 103 103 105 107 108 108 108 108 108 109 110 111 112 113 114 115 116 117 117 117 116 116 116 117 117 118 118 118 118 119 119
96 96 96 98 99 100 101 100 100 100 101 102 103 103 103 102 100 98 96 94 92 91 93 95 96 99 99 99 99 98 98 98 96 93 90 87 85 83 83 84 84 84 84 85 85 86 88 90 92 94 96 98 100 102 103 103 103 105 106 107 107 108 108 109 110 111 112 113 113 114 115 116 116 117 118 117 117 117 117 117 118 118 118 118 119 119
97 98 98 99 100 100 100 99 98 99 101 102 104 105 105 104 102 100 98 97 95 94 95 96 96 98 98 97 97 98 98 97 95 92 90 87 84 81 80 81 81 81 82 82 81 82 83 85 87 89 92 94 96 99 100 101 102 104 106 106 107 107 108 109 111 113 114 114 115 115 116 116 117 117 118 118 118 118 117 117 118 118 118 118 119 119
96 99 100 99 99 97 97 97 98 100 101 102 102 103 103 102 101 100 100 101 100 98 98 99 100 100 98 96 95 95 94 92 92 91 90 89 87 84 81 79 78 78 78 79 79 80 80 81 82 83 86 89 92 95 97 99 100 102 104 105 106 106 107 107 109 111 114 115 116 116 116 117 118 118 119 119 119 119 119 118 118 119 119 119 119 119
96 98 98 97 96 96 96 98 99 100 100 100 99 99 99 100 100 99 98 98 100 99 97 98 100 100 96 92 91 91 89 89 88 88 87 87 85 83 81 79 77 76 74 74 75 76 77 78 78 79 81 84 87 90 93 95 97 99 100 102 104 105 106 107 108 109 111 114 116 117 117 118 119 119 120 121 121 121 121 121 120 120 119 119 119 119
94 95 95 94 95 96 97 98 99 99 99 99 98 97 98 98 99 99 97 96 96 96 94 94 97 98 95 92 91 89 87 85 84 83 82 81 80 79 78 78 77 76 74 72 72 72 73 73 74 75 77 80 83 86 88 90 93 95 96 99 101 102 104 106 107 109 110 112 114 115 117 118 119 119 120 121 122 123 123 123 123 122 121 120 120 120
92 92 93 95 96 97 97 96 96 96 98 99 98 98 98 97 96 97 97 96 96 95 92 90 94 97 95 93 92 88 85 82 80 79 79 77 76 75 74 74 74 75 73 72 71 71 70 70 70 71 73 77 80 82 84 86 89 91 93 95 97 99 101 103 105 108 109 111 112 113 115 116 118 119 120 121 122 123 123 124 124 124 123 122 121 121
90 91 93 96 97 96 95 94 93 93 94 95 95 95 95 94 93 93 94 96 97 97 94 91 92 95 94 92 91 87 84 81 78 76 75 75 74 72 71 71 70 71 71 70 70 69 69 68 68 69 71 74 76 78 80 82 85 88 90 92 94 96 98 100 102 104 106 108 110 112 113 115 116 117 118 119 120 121 122 123 124 125 125 124 123 123
91 92 93 94 95 95 94 93 92 91 90 90 89 89 89 88 88 87 88 91 94 95 95 92 92 93 93 91 89 87 84 80 76 73 71 71 71 70 69 68 68 68 68 68 68 68 68 68 68 69 70 71 73 74 76 78 81 84 87 89 91 93 96 98 100 101 102 104 106 109 111 113 114 115 116 117 118 119 120 121 123 124 125 125 125 125
91 91 91 91 92 93 93 92 93 92 91 90 89 88 88 87 86 85 84 86 89 91 92 91 90 91 92 91 90 87 84 79 74 71 69 70 70 69 68 68 67 66 66 66 66 66 67 67 68 69 69 70 71 71 73 75 78 81 83 85 87 90 92 95 97 99 99 100 102 104 107 109 111 113 114 115 116 117 118 120 121 122 124 125 126 126
90 89 89 89 91 93 93 92 92 92 91 90 89 89 89 89 88 88 85 84 86 87 88 86 86 89 90 91 91 88 84 81 76 73 70 69 69 69 67 67 66 65 64 64 64 65 65 66 67 67 68 69 70 70 71 72 74 77 79 82 84 85 88 90 93 95 96 97 99 101 103 105 107 109 111 112 113 114 116 118 119 121 122 123 124 125
89 88 87 86 87 89 90 89 88 88 88 87 86 87 87 88 88 87 86 84 84 85 86 84 83 85 87 88 90 89 86 84 81 77 73 70 68 67 66 66 64 63 63 63 63 63 63 64 64 65 66 67 68 69 69 70 72 73 75 77 79 81 83 85 87 90 92 94 96 98 101 102 103 104 106 108 110 112 114 115 117 119 120 121 123 124
89 89 87 85 83 82 82 81 80 81 82 83 83 83 85 86 86 85 83 82 82 83 85 84 82 83 85 87 88 89 88 87 85 82 78 74 70 67 66 65 64 62 61 61 61 62 62 63 63 64 64 64 65 66 67 69 70 71 72 73 75 76 78 80 83 85 88 91 93 95 98 99 101 101 102 103 105 107 110 113 115 116 117 119 121 122
88 88 88 86 84 82 81 79 78 77 79 80 82 83 84 85 85 83 80 80 80 81 84 86 84 82 83 85 86 87 88 87 85 83 81 77 73 70 67 65 63 62 61 60 60 60 60 61 61 62 62 62 62 63 64 66 67 68 69 70 71 72 74 76 78 80 83 86 89 92 94 96 98 99 100 101 101 103 105 109 112 114 115 116 117 119
85 86 86 85 84 83 83 82 81 81 81 81 83 84 85 84 84 83 81 81 81 81 82 86 86 84 82 83 84 84 84 84 83 81 80 77 74 71 69 67 65 63 62 61 60 60 60 60 60 60 60 60 60 61 62 63 65 65 67 68 69 69 70 72 75 77 79 81 83 86 89 92 94 96 98 99 100 100 102 104 107 110 112 113 114 114
82 82 83 83 82 82 82 82 82 82 82 82 83 83 84 83 83 83 81 81 82 81 81 82 85 85 82 81 81 82 81 81 79 78 77 75 72 70 68 66 64 63 62 60 59 58 58 58 59 59 59 59 58 59 60 61 62 63 64 65 66 67 68 70 72 74 75 76 78 80 83 86 89 92 95 97 98 99 100 101 102 105 107 109 110 111
79 78 79 81 81 81 81 81 82 82 83 83 83 83 82 83 83 82 80 80 81 82 81 80 81 83 82 80 79 80 80 79 76 75 74 72 70 69 67 65 64 62 61 60 59 58 57 56 57 57 57 57 58 57 58 58 59 60 61 62 63 65 66 68 69 70 71 73 75 77 79 81 83 86 89 92 95 97 98 99 100 101 102 104 105 106
76 76 76 78 79 80 80 81 81 82 82 83 83 82 82 81 82 81 79 79 79 80 81 80 79 80 81 80 79 78 78 78 76 74 73 72 69 68 67 66 64 63 62 60 60 59 58 57 57 57 57 57 57 57 57 57 57 58 59 60 61 62 63 64 65 66 67 69 71 73 75 77 79 81 83 86 89 92 95 96 98 98 99 99 100 101
75 74 74 76 77 77 78 79 80 81 82 82 81 81 80 79 81 81 79 78 78 78 79 80 78 77 78 79 79 79 78 78 76 74 72 71 69 67 65 65 64 62 61 59 58 57 56 56 56 56 56 56 56 56 57 57 57 57 58 59 59 59 60 60 61 63 65 66 68 69 71 73 75 77 79 81 83 86 89 92 94 96 96 96 96 96
74 74 74 74 74 75 75 76 78 79 81 81 80 79 79 78 80 82 80 79 79 77 77 77 77 77 77 77 78 79 79 78 76 73 71 70 68 66 64 63 62 62 61 60 58 57 56 55 55 54 54 54 55 55 55 56 57 57 57 57 57 57 57 57 58 60 61 63 65 66 67 69 71 74 76 77 79 81 84 87 90 92 93 93 93 93
73 73 73 73 72 73 74 74 76 77 79 80 79 78 78 78 79 82 81 80 80 79 77 76 76 77 78 77 77 78 79 79 77 74 72 70 69 68 66 63 62 62 62 61 60 59 58 57 56 54 53 53 54 54 54 55 56 57 57 56 56 56 56 57 58 58 59 61 61 62 63 64 67 70 72 74 76 77 79 82 85 87 89 91 92 91
74 74 74 73 72 72 73 73 74 75 77 78 78 78 78 78 78 80 82 80 80 80 79 78 78 78 79 79 78 78 80 81 79 77 77 75 73 71 69 67 65 63 62 61 61 59 59 58 58 56 55 54 53 53 53 54 55 57 57 55 55 55 55 56 57 58 59 60 60 60 61 62 63 65 68 70 72 74 76 78 80 83 85 87 89 89
74 74 74 74 73 73 73 73 73 74 77 79 80 79 79 77 76 78 81 82 80 80 81 81 81 81 81 81 80 78 79 82 82 79 78 77 75 73 71 69 67 64 63 62 61 60 59 59 58 58 57 55 54 53 53 54 54 55 56 55 54 54 55 55 56 57 57 58 59 59 60 61 61 63 64 65 67 69 72 75 77 79 82 84 85 86
75 75 75 75 75 74 74 75 75 75 77 80 81 80 79 79 76 75 79 82 82 82 82 82 82 82 83 82 81 79 78 80 82 80 78 77 76 74 72 70 67 64 63 62 61 60 59 58 58 57 56 56 55 54 53 54 54 54 55 54 53 53 54 54 55 55 56 56 57 58 58 59 60 61 62 62 63 65 67 70 73 76 78 80 82 83
76 77 76 76 76 75 74 75 76 74 75 77 79 80 80 80 79 76 77 80 82 82 82 82 82 83 84 84 83 80 77 78 80 80 79 78 76 73 72 71 69 66 63 61 60 60 59 58 56 55 54 54 54 53 53 54 54 54 54 54 53 53 53 53 53 54 54 55 55 56 56 57 58 60 60 60 60 62 64 66 69 71 74 77 78 80
77 78 78 78 79 78 77 77 78 76 75 77 79 80 80 81 80 78 78 79 81 82 82 83 83 84 85 86 85 82 78 76 77 78 77 76 75 73 71 71 70 68 64 61 59 59 59 58 56 55 53 52 52 52 52 53 53 54 54 53 52 53 53 53 52 52 52 54 54 54 54 54 55 57 58 58 58 59 61 63 65 67 69 72 75 76
78 79 80 80 80 81 80 80 82 81 79 79 81 82 82 82 82 81 80 80 80 81 82 83 84 85 86 86 86 85 81 77 76 75 74 73 72 71 70 69 68 67 66 63 60 58 58 57 56 55 53 51 51 52 52 52 52 52 52 52 51 51 52 52 52 51 50 52 53 53 53 53 53 55 55 55 56 57 58 60 62 63 65 68 70 72
79 80 81 81 82 82 82 81 83 84 82 82 83 83 83 84 84 85 84 83 83 83 84 85 85 86 87 87 87 87 85 83 80 77 74 71 70 69 69 68 67 66 65 64 62 60 58 57 56 55 53 51 51 51 52 52 52 51 51 51 50 50 50 51 51 50 49 50 52 52 52 52 52 53 54 54 54 54 56 58 59 60 61 64 66 68
80 80 82 82 82 83 83 82 82 84 83 82 83 84 85 85 86 86 87 87 86 86 86 87 87 87 88 88 87 87 87 86 84 81 77 73 71 69 69 68 67 66 66 65 64 62 61 60 58 56 54 53 52 52 52 52 52 52 51 50 49 49 49 49 49 49 48 48 50 51 51 51 51 52 52 52 52 52 53 55 57 58 59 60 62 64
82 81 82 83 83 83 84 84 84 84 83 82 84 85 85 86 86 86 86 87 87 86 86 87 88 87 87 87 87 87 87 86 85 83 80 77 74 71 70 68 67 67 66 65 64 63 62 61 60 58 55 53 52 51 51 51 51 51 51 51 49 48 48 48 48 48 47 46 48 49 49 50 50 51 51 51 51 51 51 53 54 56 57 57 59 60
84 82 83 84 85 85 85 85 87 88 86 84 85 86 85 85 86 85 84 84 85 85 85 86 87 87 86 86 86 86 86 85 84 83 81 79 77 74 72 70 69 67 66 65 64 62 61 60 60 59 57 53 51 50 50 50 51 51 51 51 50 48 47 47 47 47 46 46 46 47 47 48 49 50 50 50 50 49 49 50 52 53 54 55 56 58
85 84 84 85 86 86 87 87 88 91 91 87 87 87 86 85 86 85 83 83 84 85 85 86 87 87 86 85 84 85 85 84 83 82 81 79 78 76 74 72 70 69 68 66 64 62 60 59 59 59 58 55 52 50 49 48 49 50 50 49 49 48 47 46 47 47 46 45 46 46 45 45 47 48 49 49 49 49 48 49 50 51 52 53 54 55
86 85 85 86 86 87 88 87 88 91 92 90 88 87 86 86 87 87 86 85 85 85 86 86 87 87 87 85 84 84 84 83 82 82 81 79 78 76 75 73 71 70 69 67 64 62 60 58 58 58 58 56 54 51 50 48 48 49 49 48 48 47 46 46 45 46 45 45 45 45 45 44 44 46 47 47 48 48 47 48 48 49 51 51 52 53
86 86 85 85 86 86 86 86 87 89 91 91 89 88 87 87 87 88 87 87 87 87 87 88 88 88 87 86 84 84 83 82 81 81 80 79 78 76 75 74 72 71 69 67 64 62 61 60 59 59 58 57 55 52 50 49 48 48 48 47 47 46 46 45 44 44 44 45 45 45 44 44 43 44 45 45 46 47 46 46 47 48 49 50 50 50
87 88 86 85 86 86 85 85 85 88 90 90 89 89 88 88 88 88 88 87 88 88 88 89 89 88 88 87 85 84 83 82 81 80 80 79 77 76 75 74 72 70 69 67 65 63 62 61 60 60 59 57 55 53 51 49 48 47 47 46 46 45 45 44 43 42 41 43 44 44 44 43 43 43 43 43 44 45 45 45 45 46 47 48 49 49
88 89 88 86 85 86 86 85 84 86 89 90 90 89 89 88 88 89 89 88 89 89 90 90 90 90 90 89 88 86 85 83 82 80 79 78 77 76 75 73 71 70 68 67 66 64 62 61 61 60 58 57 55 53 51 49 48 47 46 45 44 44 44 43 42 40 40 40 42 42 43 42 42 42 42 42 42 43 44 44 44 44 45 47 48 48
90 91 90 88 86 87 87 87 86 86 88 90 90 90 89 89 89 89 90 89 90 90 91 91 91 91 91 91 89 87 86 84 83 81 80 79 78 76 75 73 72 70 68 67 65 64 62 60 59 58 57 56 55 53 51 49 48 46 45 44 44 43 43 43 41 39 38 39 39 40 41 41 41 41 41 40 41 41 42 43 43 43 43 45 46 47
91 92 92 91 89 89 90 89 89 89 89 89 90 90 89 89 89 89 90 90 90 91 91 91 91 92 93 92 91 89 87 85 83 82 81 80 78 76 75 74 72 70 69 67 65 64 62 61 59 57 56 55 54 52 51 50 48 47 45 44 44 43 42 42 41 39 37 37 38 38 39 40 39 39 39 39 39 40 40 41 42 42 42 43 44 45
92 93 93 93 91 91 91 91 91 91 91 90 91 91 90 90 89 90 90 90 91 91 92 92 92 92 93 93 92 89 87 85 83 82 80 80 79 77 76 74 72 70 69 67 66 64 63 62 60 58 56 55 53 52 51 50 49 47 46 44 43 43 42 42 41 39 38 37 37 37 38 39 39 38 38 38 38 38 38 39 41 41 40 41 42 43
Wind_Direction
290 291 291 292 292 293 293 294 294 295 295 295 295 295 295 296 297 298 298 298 298 298 299 298 297 297 296 295 294 293 292 291 291 291 291 291 290 289 288 287 286 285 284 284 283 282 280 279 277 275 273 272 271 269 268 266 264 263 261 260 260 258 257 255 253 253 252 252 252 252 252 251 250 250 249 248 247 247 247 248 248 249 249 249 249 249
291 292 292 293 293 293 293 294 295 295 295 295 295 296 297 298 299 300 300 300 300 300 299 298 297 296 295 295 294 293 293 292 292 293 292 291 290 289 288 287 286 285 284 283 282 281 280 278 277 275 274 272 271 269 268 267 265 263 261 259 258 257 257 256 254 253 252 252 252 252 252 251 251 250 250 250 249 248 247 247 247 247 248 248 249 249
292 292 292 292 292 293 293 294 295 296 296 296 297 298 299 299 300 300 300 300 300 300 299 298 297 296 295 294 294 294 294 294 294 293 292 291 290 288 287 286 285 284 283 281 280 279 278 277 276 274 273 272 271 269 268 267 265 264 262 260 257 256 255 255 254 253 252 252 252 252 251 252 251 251 251 251 250 250 248 247 247 247 247 247 248 248
292 293 293 293 294 294 295 296 297 298 298 299 299 300 301 301 300 300 299 299 300 300 300 299 298 297 296 296 296 296 295 295 294 293 292 291 289 288 286 285 284 282 281 280 278 277 276 275 274 272 271 270 269 268 267 266 265 264 263 261 259 257 254 253 253 252 252 252 252 252 251 252 252 252 251 251 251 251 250 249 248 248 248 247 247 247
293 293 294 294 295 296 297 298 298 299 300 300 301 301 301 300 300 300 300 300 300 301 300 300 298 298 297 297 297 296 295 295 294 294 293 292 290 289 287 286 284 283 281 279 277 275 274 272 271 270 269 268 267 266 266 265 264 264 263 261 260 258 256 254 253 252 251 251 251 251 251 251 251 252 252 252 252 252 251 250 250 249 249 249 248 248
294 295 296 297 298 299 299 299 300 300 299 299 299 300 300 300 300 301 301 301 301 301 300 299 298 297 296 296 296 296 295 295 295 294 293 292 290 289 288 286 284 283 281 279 278 276 274 272 271 269 268 267 266 265 264 264 263 263 262 262 261 260 258 257 254 253 251 251 250 251 251 251 251 251 251 251 252 252 252 251 250 250 250 250 249 249
296 297 298 298 299 300 300 300 300 299 299 298 299 299 300 301 301 302 302 302 301 301 301 300 299 298 297 297 297 297 296 296 295 293 292 290 289 287 286 284 282 281 279 278 277 276 275 274 273 271 270 268 267 266 265 264 263 262 262 261 261 260 260 259 257 255 254 252 251 250 250 251 251 251 251 251 251 251 252 252 251 250 250 250 250 250
297 298 298 299 300 300 299 299 298 299 299 299 300 301 301 302 302 302 302 302 302 302 302 301 301 300 299 298 298 297 296 295 294 293 291 291 289 288 287 285 284 282 280 279 277 276 275 274 274 273 272 270 269 268 266 265 264 263 262 261 260 260 259 259 258 257 256 255 253 252 251 251 251 251 251 251 251 251 251 252 252 251 250 250 250 250
297 298 298 299 299 299 298 299 299 300 301 302 302 302 302 302 302 303 302 303 303 303 303 302 300 300 299 298 297 296 295 294 293 292 290 289 288 287 286 286 285 284 283 281 280 278 276 274 273 272 271 270 269 268 267 266 265 263 262 261 261 260 259 259 258 258 257 256 255 254 253 252 251 251 251 252 252 252 252 252 252 252 251 250 250 250
296 296 297 298 299 300 300 301 302 303 303 303 302 302 303 303 304 304 304 304 304 303 303 301 300 299 298 298 297 295 294 293 292 290 289 288 287 286 285 284 283 283 282 281 280 279 277 276 274 272 270 269 268 267 266 265 264 264 263 262 261 260 260 259 258 258 258 257 256 255 254 254 253 252 251 251 251 252 252 252 252 252 253 251 250 250
297 298 300 301 302 302 303 303 303 303 303 303 303 303 303 303 304 304 304 304 303 303 302 300 299 298 298 298 296 295 294 294 294 293 292 291 289 288 286 285 283 282 281 280 278 278 277 275 274 273 271 269 267 266 265 264 264 263 262 261 260 260 259 259 258 258 258 257 257 257 256 255 254 253 252 252 251 251 251 252 252 252 253 253 252 250
301 302 302 302 302 302 302 303 303 303 304 304 304 304 303 303 303 303 302 302 301 300 299 298 297 297 297 297 297 296 296 296 296 295 293 292 291 289 288 286 284 282 280 278 277 275 274 274 273 272 271 270 268 267 265 264 263 263 262 261 260 259 259 258 257 257 257 257 257 256 256 256 255 254 254 253 252 252 251 251 252 252 252 252 253 251
300 300 301 301 302 302 302 303 303 303 303 303 303 302 302 302 301 300 299 298 297 297 297 297 297 297 297 297 297 297 297 296 295 294 293 292 291 289 288 285 283 281 279 277 275 274 273 271 271 270 270 269 269 268 267 265 264 262 261 261 260 260 259 258 258 257 256 256 256 255 255 255 255 255 254 254 253 252 252 252 252 252 252 252 252 252
300 301 302 302 303 303 303 303 303 302 302 301 301 302 302 303 303 302 301 299 299 299 299 299 299 298 298 298 299 300 300 299 298 297 295 293 291 290 288 286 284 282 280 278 276 274 272 271 270 268 268 267 267 267 267 266 265 263 262 261 260 259 258 257 257 257 256 255 255 255 254 254 254 254 254 254 253 253 252 252 252 252 252 252 252 252
302 302 303 303 303 303 303 303 303 303 303 304 304 305 306 306 306 306 306 305 305 305 304 303 302 301 301 302 303 302 302 302 301 301 299 298 296 294 291 289 287 285 283 281 278 276 273 271 270 268 267 266 266 265 265 265 264 264 263 263 261 260 258 257 256 256 256 255 254 254 254 254 254 254 254 254 253 253 252 252 252 252 252 252 252 251
302 303 303 303 304 304 304 305 305 305 306 306 306 306 307 307 308 309 309 309 308 308 307 306 305 304 304 304 304 303 303 304 304 304 303 301 300 297 294 291 288 286 284 282 281 278 276 273 271 269 268 267 265 264 264 263 262 262 262 262 262 262 260 259 257 256 256 256 255 254 254 253 253 253 253 253 253 253 252 252 251 251 251 251 251 251
303 303 303 304 305 306 306 307 307 307 306 306 307 308 309 310 310 309 309 309 308 308 308 307 306 304 304 305 305 305 306 306 305 304 302 301 299 298 296 294 291 288 285 282 280 278 277 275 273 271 269 267 266 265 264 263 262 262 261 261 261 261 260 260 259 257 256 256 256 255 255 254 253 252 252 252 252 252 251 251 251 250 250 250 250 250
303 304 305 306 307 307 308 307 307 308 308 309 310 310 310 310 310 310 309 309 307 307 306 307 307 306 307 308 307 307 307 306 305 303 302 301 299 298 297 295 293 291 288 285 282 280 277 276 274 272 270 268 267 265 264 264 263 262 261 260 260 259 259 258 258 257 257 256 256 256 255 255 254 254 253 252 251 251 251 251 250 250 249 249 249 249
305 306 307 307 308 307 308 308 309 310 311 311 312 312 311 311 311 311 310 309 307 306 307 310 310 309 310 309 308 308 308 307 307 306 304 303 301 299 297 296 294 293 291 289 286 283 281 278 275 272 269 267 266 265 265 264 263 262 261 260 260 259 258 258 257 257 256 256 255 255 254 254 254 254 254 253 253 252 252 251 251 250 249 249 248 248
307 308 309 309 308 308 309 310 310 311 311 311 311 311 311 311 311 310 310 310 310 310 312 313 312 310 310 309 309 310 310 310 310 309 307 305 303 301 299 297 295 294 292 290 288 285 283 280 277 273 269 267 265 264 263 262 262 262 261 261 260 259 258 257 257 256 256 256 255 255 254 254 254 253 253 253 253 253 253 252 252 251 250 250 249 248
309 310 309 309 309 310 311 311 311 311 310 310 310 310 310 310 310 312 313 314 313 313 313 313 312 310 310 311 311 312 312 312 311 310 309 307 305 304 301 299 297 295 293 291 289 287 284 282 279 276 273 271 269 267 265 262 261 260 260 260 259 259 259 258 257 256 256 255 255 255 255 255 254 254 253 253 253 253 253 253 252 252 251 251 250 249
310 310 310 311 311 312 312 313 313 313 313 313 313 313 312 313 313 315 316 316 315 314 313 313 313 313 313 313 313 313 313 313 313 313 313 311 309 307 305 302 300 297 294 292 290 288 286 284 282 279 277 275 273 271 268 266 264 262 261 260 259 259 258 259 259 258 258 257 256 255 255 254 254 254 254 253 253 252 252 252 252 252 252 252 251 251
310 311 312 313 314 313 314 315 315 315 315 315 316 316 316 317 317 318 318 317 315 314 314 315 316 315 315 314 314 315 316 316 316 317 316 314 311 309 306 304 301 299 297 295 292 290 288 286 284 282 280 278 276 273 270 268 266 265 264 263 261 260 259 259 259 259 259 259 258 258 257 256 255 254 254 254 254 253 252 252 252 252 252 252 251 251
313 313 314 314 314 314 315 315 316 315 315 315 316 317 318 318 319 319 319 319 317 317 317 318 318 317 316 316 316 318 319 319 319 319 318 316 313 310 308 305 303 301 299 296 294 292 289 287 285 283 281 279 278 276 274 271 269 266 265 264 263 262 261 260 259 259 258 258 258 257 258 257 256 255 254 254 254 254 254 253 252 252 251 251 251 251
315 315 315 314 314 313 312 313 313 314 315 316 317 318 319 319 319 319 320 320 320 321 319 319 320 321 320 320 320 320 321 321 321 320 319 318 315 313 310 308 306 303 301 298 295 293 291 289 287 285 283 281 279 278 276 274 272 270 268 266 264 263 262 261 259 258 258 257 257 257 257 257 258 258 256 255 254 253 253 254 254 253 252 252 252 251
316 315 315 315 315 314 313 313 314 316 318 320 321 322 322 322 321 321 323 324 324 324 322 322 323 324 324 323 323 322 322 321 321 320 319 318 317 316 313 311 309 306 304 301 298 296 293 291 289 287 286 284 282 280 278 276 274 273 271 269 267 266 264 263 261 259 258 257 257 257 258 258 258 258 258 257 256 254 253 253 253 254 254 253 253 252
316 316 316 316 316 317 318 319 320 321 323 324 325 325 324 323 322 324 326 327 326 326 326 325 325 325 326 325 324 323 321 320 320 320 319 319 318 317 315 314 312 309 307 305 302 300 298 295 293 291 288 286 284 282 280 278 277 275 274 272 270 268 266 265 264 262 261 259 258 258 258 258 258 258 258 258 258 256 255 253 253 253 253 254 254 253
316 316 317 317 319 320 321 322 323 324 325 326 326 326 325 325 325 326 328 328 327 327 327 327 326 326 326 325 323 322 320 319 320 320 319 319 318 317 316 314 313 311 309 306 304 302 300 297 295 294 292 289 287 284 282 280 278 276 275 273 272 270 268 266 265 264 263 262 261 259 258 257 257 257 258 258 258 258 257 255 254 253 253 254 254 254
317 318 319 320 321 323 324 325 326 327 327 327 327 327 328 328 327 327 328 328 328 328 328 328 327 326 325 325 324 322 320 319 320 320 320 320 319 318 317 315 314 312 310 309 306 304 302 300 298 296 293 291 289 287 284 282 280 278 276 273 271 270 268 267 266 265 264 263 262 261 260 258 257 256 256 257 258 258 258 258 257 255 254 254 254 254
319 321 322 323 324 325 326 327 327 328 328 328 328 329 330 330 328 327 329 329 329 329 328 328 328 327 326 326 325 323 321 320 321 322 323 322 321 320 319 317 316 315 313 311 310 308 306 303 301 298 296 294 292 290 288 285 283 280 277 275 273 270 269 268 267 266 265 263 262 261 260 260 259 258 257 256 256 256 257 258 258 258 257 255 254 254
322 324 325 326 326 327 327 327 328 328 328 328 329 330 331 330 329 328 329 330 330 329 329 328 328 328 328 328 328 326 324 322 323 324 324 323 323 322 321 319 317 316 314 313 311 309 306 304 301 299 297 296 294 292 291 289 286 283 280 278 275 273 271 269 267 266 265 264 263 262 261 260 260 259 258 257 256 256 256 256 257 258 258 257 256 254
324 326 327 327 328 327 328 328 328 328 328 329 330 331 331 332 331 329 330 331 330 330 329 328 328 329 329 330 330 330 327 324 324 325 325 324 323 322 321 320 318 317 316 314 313 310 308 306 303 301 299 297 295 294 292 290 288 286 283 281 279 277 275 273 270 267 265 264 263 262 261 261 260 260 259 258 257 256 256 256 256 256 257 258 258 256
327 328 328 329 329 328 328 328 329 329 329 329 330 331 332 334 333 331 330 331 331 330 330 329 329 330 330 331 332 332 329 327 326 327 327 326 325 325 324 322 321 319 318 317 315 313 311 309 307 304 302 300 298 296 294 292 290 287 286 284 282 281 279 277 275 272 270 267 265 263 262 260 259 259 259 259 258 257 256 256 255 256 256 257 257 257
329 329 329 329 330 329 329 329 329 329 329 329 330 333 334 335 335 332 330 331 331 331 331 332 333 333 333 333 333 334 332 329 328 330 330 329 328 327 326 325 324 322 320 319 317 315 313 311 309 307 305 303 300 298 296 293 291 289 288 286 285 283 281 279 277 275 274 272 270 268 265 263 261 259 259 258 258 258 257 257 256 255 255 256 256 257
330 330 330 330 330 331 330 330 330 330 330 331 332 334 334 334 335 334 332 331 332 333 334 334 335 335 335 335 335 335 334 332 331 332 332 331 329 328 327 326 325 323 322 320 318 316 314 313 311 309 308 305 303 300 297 295 292 290 289 288 286 284 282 280 278 276 275 274 272 271 269 267 264 262 260 259 258 258 257 257 257 256 256 255 255 256
331 331 331 331 331 331 331 330 330 332 334 333 333 334 334 334 335 335 334 333 334 334 335 335 336 336 336 336 335 336 337 335 332 332 332 332 331 329 327 325 325 323 322 321 319 317 315 314 312 310 308 306 304 302 299 297 294 292 290 289 287 285 283 281 279 277 276 275 273 272 270 268 266 264 263 261 259 258 257 257 256 256 256 256 256 256
332 332 332 332 332 332 332 332 332 333 335 334 332 333 334 334 334 335 335 335 335 335 335 336 337 337 337 336 336 336 337 337 334 333 333 332 331 330 328 326 324 324 322 321 320 317 315 314 312 310 308 306 304 303 301 298 296 294 292 291 289 287 284 282 281 279 278 276 274 273 271 269 267 266 264 263 261 260 259 257 256 256 256 256 256 256
333 333 333 333 332 332 333 333 332 334 335 334 333 334 335 334 334 335 336 336 336 335 336 337 338 338 337 337 336 335 337 338 336 333 333 332 331 330 328 326 325 324 323 322 321 319 316 315 313 312 309 307 305 303 301 299 297 295 294 292 290 288 286 284 282 281 279 278 276 274 273 271 269 268 266 264 263 262 260 259 257 256 256 256 256 257
334 334 333 334 334 334 335 335 334 334 336 336 335 335 335 335 335 336 336 336 336 336 337 338 338 338 338 337 336 335 336 337 336 334 332 332 331 330 328 327 325 324 324 323 322 320 318 316 315 313 311 309 307 305 303 301 298 297 295 293 291 289 288 286 284 283 281 280 278 277 275 273 271 270 268 266 265 263 262 261 259 258 257 256 256 257
335 335 334 335 335 335 335 337 336 335 337 338 336 336 336 336 336 337 336 336 337 337 338 338 339 339 338 337 337 337 336 336 336 334 333 332 332 330 329 327 326 325 325 324 324 323 320 318 317 315 314 312 310 308 306 303 301 299 297 294 292 290 288 287 285 284 282 281 280 278 277 275 273 271 270 268 267 265 264 263 261 259 258 257 257 257
335 336 335 336 336 336 336 337 336 335 337 338 337 337 337 337 337 337 337 337 338 338 339 338 339 339 338 337 337 337 337 336 335 334 333 333 333 332 330 328 327 327 327 326 326 324 323 321 319 318 316 315 313 310 308 306 304 302 299 297 294 292 290 288 286 285 283 282 280 279 279 277 275 273 271 270 268 266 265 264 263 262 260 259 258 257
335 336 336 336 337 336 336 337 337 335 336 338 338 338 338 338 337 337 338 337 338 338 339 338 338 338 338 337 337 337 337 336 335 334 334 334 334 333 332 330 329 329 328 327 326 325 324 322 321 319 318 316 314 312 310 308 305 303 301 299 297 295 293 291 289 287 285 283 281 280 279 278 277 275 273 272 270 268 266 264 264 263 262 260 259 258
335 337 338 337 337 337 337 337 337 336 337 339 339 338 338 338 336 337 337 337 337 338 338 338 337 337 337 337 337 336 336 336 335 334 334 334 334 334 333 332 331 330 329 328 327 326 325 323 321 319 318 317 315 313 311 309 306 304 302 300 299 297 295 293 291 289 287 285 282 281 279 278 277 276 274 273 272 270 267 266 265 264 263 261 261 260
335 337 338 338 338 338 338 339 339 337 337 339 339 338 338 337 336 336 337 337 337 338 338 338 337 336 336 336 337 336 336 336 335 335 334 334 334 334 333 332 332 331 330 329 327 326 325 323 321 319 318 318 317 315 313 311 308 305 302 301 300 298 296 294 292 290 289 287 284 282 280 278 277 276 275 273 272 271 269 267 266 265 263 262 261 260
335 336 339 339 339 339 338 339 339 337 336 338 338 338 338 337 336 336 337 338 338 338 338 337 337 336 336 336 336 336 336 336 336 335 334 334 334 333 333 333 332 331 330 328 327 326 325 323 322 321 320 319 318 317 315 313 309 306 304 302 301 299 297 295 293 292 291 289 287 285 283 280 278 276 275 274 273 271 270 268 267 266 265 263 262 261
335 336 338 339 339 339 338 338 339 337 336 337 338 337 337 338 337 337 338 338 338 338 338 337 337 336 335 335 336 337 336 336 336 335 334 334 333 333 333 333 332 331 329 327 327 327 327 326 324 323 321 320 319 318 316 314 311 308 305 304 302 300 298 296 294 293 292 291 289 287 285 283 280 278 276 275 274 272 271 269 267 267 266 265 263 262
335 336 337 339 339 338 338 338 339 337 336 336 337 337 337 338 338 337 338 338 338 338 337 337 336 336 336 336 336 337 336 336 336 336 335 334 333 333 333 333 332 330 328 327 328 329 329 327 325 323 322 320 319 318 316 314 312 309 307 305 303 301 299 298 296 295 294 292 291 289 288 285 283 280 278 277 275 274 272 270 268 267 266 265 264 262
335 335 336 338 339 338 337 338 339 338 336 336 337 337 337 338 338 337 338 338 338 338 337 337 336 336 336 336 336 337 337 336 336 336 335 334 333 333 333 332 331 330 329 329 329 330 329 327 325 323 321 320 319 318 317 315 313 311 309 307 305 303 301 300 298 297 296 293 292 291 289 287 285 283 280 278 277 275 274 272 270 268 266 266 265 263
335 335 335 337 338 338 337 337 338 338 337 337 336 336 337 338 338 337 338 338 338 337 337 337 337 337 336 336 336 337 337 337 336 336 335 334 333 333 332 332 331 330 330 329 330 329 328 326 324 322 321 321 320 319 318 316 315 313 311 309 307 305 303 301 300 299 297 295 294 292 291 289 287 285 283 280 278 276 275 273 271 269 267 266 265 264
335 335 335 336 338 338 337 338 339 338 338 337 336 336 337 337 338 337 337 338 338 337 337 337 337 337 337 336 336 336 337 337 336 336 335 334 333 333 332 332 331 331 330 330 330 329 328 326 325 323 322 321 320 320 319 317 316 315 313 311 309 307 305 303 302 301 299 297 295 293 292 291 289 286 284 282 280 278 276 275 273 270 268 267 265 264
334 335 335 335 337 338 337 338 338 338 337 337 337 336 337 337 337 337 337 337 337 337 336 337 337 337 337 336 336 336 336 336 336 336 336 334 333 333 332 332 331 331 330 330 330 330 328 327 325 324 323 322 321 321 320 318 317 316 314 313 311 309 307 304 303 302 300 298 296 295 293 292 290 288 286 284 282 279 277 276 274 272 270 267 266 265
Height
10589 10585 10580 10575 10571 10566 10561 10557 10553 10548 10544 10540 10537 10534 10528 10525 10524 10516 10507 10502 10496 10500 10500 10486 10477 10473 10462 10458 10455 10449 10446 10442 10438 10437 10435 10434 10432 10429 10425 10421 10417 10414 10410 10406 10403 10401 10399 10398 10397 10396 10394 10392 10391 10390 10390 10390 10391 10392 10392 10393 10394 10394 10395 10397 10397 10396 10396 10396 10397 10398 10399 10402 10404 10405 10406 10407 10408 10411 10413 10414 10413 10413 10413 10414 10415 10415
10580 10576 10572 10567 10563 10559 10554 10549 10544 10538 10533 10529 10525 10523 10517 10511 10511 10506 10495 10488 10483 10482 10483 10473 10463 10459 10450 10445 10442 10436 10432 10429 10428 10426 10423 10421 10418 10415 10411 10408 10404 10400 10397 10394 10390 10387 10384 10382 10381 10380 10379 10378 10376 10375 10375 10375 10375 10376 10378 10380 10381 10381 10381 10383 10384 10384 10384 10384 10385 10385 10386 10387 10390 10392 10392 10392 10394 10397 10400 10401 10400 10400 10400 10401 10402 10402
10572 10568 10564 10560 10555 10550 10546 10541 10536 10529 10522 10517 10513 10511 10506 10498 10496 10496 10487 10477 10470 10464 10464 10458 10447 10442 10438 10431 10427 10425 10421 10416 10414 10412 10408 10406 10403 10400 10396 10392 10389 10385 10382 10379 10375 10372 10369 10366 10365 10364 10363 10361 10360 10359 10359 10359 10359 10359 10361 10363 10365 10367 10368 10368 10369 10371 10371 10371 10372 10372 10373 10374 10375 10378 10377 10377 10379 10382 10385 10387 10387 10387 10388 10389 10390 10390
10563 10559 10556 10551 10546 10541 10536 10531 10526 10520 10510 10502 10500 10497 10493 10486 10478 10478 10477 10471 10464 10451 10443 10440 10433 10424 10419 10418 10415 10411 10407 10402 10398 10395 10392 10390 10386 10382 10379 10375 10372 10368 10365 10361 10357 10354 10351 10349 10347 10345 10344 10343 10343 10342 10342 10341 10342 10342 10343 10344 10347 10350 10353 10354 10355 10356 10357 10358 10359 10359 10360 10361 10362 10363 10363 10363 10365 10366 10368 10371 10373 10374 10375 10376 10378 10379
10555 10550 10547 10542 10537 10532 10526 10521 10516 10511 10503 10491 10486 10483 10479 10474 10466 10460 10456 10455 10455 10446 10429 10420 10418 10413 10403 10401 10403 10398 10391 10387 10384 10380 10374 10370 10366 10362 10359 10355 10351 10348 10344 10341 10337 10334 10332 10330 10328 10326 10325 10325 10324 10324 10324 10324 10324 10325 10326 10326 10328 10331 10334 10337 10339 10341 10342 10343 10345 10345 10346 10347 10347 10348 10349 10349 10350 10349 10351 10356 10360 10361 10362 10363 10364 10365
10546 10541 10537 10532 10527 10522 10515 10510 10505 10502 10497 10487 10478 10472 10466 10461 10457 10449 10441 10435 10435 10436 10425 10403 10398 10404 10396 10386 10387 10383 10378 10373 10369 10365 10359 10352 10348 10343 10340 10336 10331 10327 10323 10319 10315 10313 10311 10310 10308 10308 10307 10307 10307 10307 10307 10307 10308 10308 10309 10309 10310 10312 10314 10317 10320 10323 10326 10328 10330 10331 10331 10332 10332 10333 10334 10335 10336 10335 10335 10340 10344 10347 10348 10349 10349 10351
10537 10532 10528 10523 10518 10512 10504 10498 10493 10489 10486 10480 10471 10463 10455 10448 10444 10437 10429 10421 10414 10415 10414 10392 10375 10383 10383 10373 10369 10363 10360 10358 10353 10348 10341 10335 10330 10326 10321 10316 10312 10308 10304 10301 10298 10295 10293 10292 10291 10290 10290 10290 10290 10290 10290 10291 10291 10291 10292 10292 10293 10294 10295 10297 10300 10303 10307 10310 10313 10315 10316 10316 10317 10318 10319 10320 10322 10322 10321 10323 10327 10330 10333 10334 10335 10336
10527 10524 10519 10514 10509 10502 10495 10487 10482 10478 10473 10467 10460 10452 10444 10437 10431 10424 10416 10409 10400 10396 10396 10381 10361 10358 10360 10356 10351 10345 10341 10338 10334 10329 10323 10317 10312 10306 10300 10295 10291 10288 10286 10284 10282 10280 10279 10277 10275 10274 10273 10273 10272 10272 10272 10273 10273 10273 10274 10275 10275 10276 10277 10278 10280 10283 10286 10290 10293 10296 10298 10300 10301 10303 10303 10304 10307 10307 10307 10309 10311 10313 10317 10320 10320 10321
10518 10514 10510 10506 10501 10492 10483 10476 10470 10465 10459 10453 10446 10439 10432 10425 10419 10412 10404 10396 10388 10380 10376 10368 10352 10340 10340 10340 10334 10328 10325 10321 10317 10313 10308 10303 10297 10290 10284 10279 10274 10270 10267 10265 10263 10262 10261 10260 10259 10257 10255 10254 10253 10253 10253 10253 10253 10254 10255 10256 10257 10258 10260 10261 10262 10263 10265 10269 10272 10276 10279 10281 10283 10286 10287 10288 10291 10292 10291 10294 10297 10296 10299 10304 10306 10306
10511 10507 10502 10498 10493 10483 10471 10461 10454 10449 10443 10437 10432 10427 10420 10413 10406 10398 10389 10383 10375 10367 10359 10351 10339 10323 10319 10324 10319 10309 10307 10304 10301 10299 10294 10288 10283 10278 10273 10267 10262 10257 10252 10248 10244 10242 10240 10238 10237 10236 10235 10234 10233 10232 10232 10232 10232 10233 10234 10236 10238 10239 10241 10242 10243 10245 10246 10248 10251 10254 10258 10261 10263 10266 10269 10271 10274 10276 10276 10277 10281 10281 10281 10284 10289 10291
10501 10495 10490 10485 10479 10471 10461 10448 10440 10436 10430 10422 10416 10413 10410 10404 10398 10388 10378 10370 10363 10356 10347 10337 10327 10310 10301 10304 10301 10292 10288 10286 10283 10280 10276 10271 10266 10262 10258 10253 10248 10243 10238 10233 10228 10224 10220 10218 10216 10214 10214 10213 10212 10212 10211 10212 10212 10212 10213 10215 10218 10219 10221 10222 10224 10226 10227 10228 10230 10233 10236 10239 10242 10246 10249 10252 10255 10258 10260 10261 10263 10265 10265 10266 10269 10273
10486 10482 10476 10473 10470 10463 10455 10442 10429 10421 10415 10409 10400 10395 10394 10393 10391 10384 10374 10365 10356 10347 10337 10327 10317 10304 10293 10288 10281 10275 10273 10269 10266 10262 10257 10252 10248 10245 10240 10236 10231 10226 10222 10216 10212 10208 10204 10200 10197 10195 10193 10192 10191 10191 10191 10192 10192 10192 10192 10194 10196 10199 10200 10202 10204 10206 10207 10209 10210 10212 10214 10217 10220 10224 10228 10232 10236 10238 10241 10243 10245 10247 10249 10249 10250 10253
10476 10475 10468 10463 10460 10454 10448 10439 10426 10413 10404 10397 10391 10384 10380 10379 10380 10376 10370 10363 10356 10346 10332 10319 10306 10293 10284 10277 10269 10263 10259 10254 10250 10246 10241 10236 10232 10228 10223 10217 10212 10207 10203 10199 10195 10191 10188 10184 10181 10178 10176 10174 10172 10171 10171 10172 10172 10172 10172 10174 10176 10178 10180 10182 10184 10185 10187 10189 10190 10192 10194 10196 10198 10201 10205 10210 10214 10218 10220 10223 10226 10228 10230 10232 10233 10235
10467 10466 10461 10452 10447 10441 10434 10427 10419 10409 10399 10390 10382 10375 10368 10362 10359 10356 10349 10343 10340 10333 10320 10308 10297 10282 10272 10265 10258 10249 10241 10234 10230 10226 10223 10219 10216 10213 10206 10199 10194 10189 10184 10181 10178 10175 10172 10169 10165 10163 10161 10158 10156 10153 10152 10152 10152 10151 10151 10153 10156 10158 10160 10162 10163 10164 10166 10168 10170 10172 10174 10176 10178 10180 10183 10187 10191 10196 10199 10202 10205 10208 10211 10213 10215 10217
10458 10452 10450 10443 10436 10430 10421 10413 10406 10396 10386 10376 10366 10356 10348 10340 10333 10328 10321 10312 10310 10308 10297 10286 10278 10266 10257 10252 10244 10234 10223 10215 10208 10202 10198 10196 10194 10193 10189 10183 10178 10172 10167 10163 10160 10158 10155 10153 10150 10147 10145 10143 10140 10137 10135 10134 10134 10133 10132 10133 10136 10138 10140 10142 10143 10143 10144 10147 10150 10152 10154 10156 10159 10161 10163 10166 10169 10173 10177 10181 10183 10187 10190 10193 10196 10198
10451 10441 10438 10431 10424 10419 10410 10400 10393 10383 10373 10364 10355 10346 10336 10327 10318 10312 10304 10291 10283 10283 10275 10262 10253 10244 10242 10241 10231 10220 10212 10203 10194 10186 10179 10173 10170 10169 10167 10165 10161 10157 10153 10148 10144 10140 10137 10135 10134 10132 10130 10128 10124 10121 10118 10117 10116 10116 10116 10116 10117 10119 10120 10123 10125 10126 10126 10127 10129 10131 10134 10137 10139 10141 10143 10146 10148 10151 10155 10159 10163 10166 10169 10173 10176 10178
10447 10434 10427 10421 10412 10406 10400 10389 10379 10370 10362 10354 10346 10337 10326 10316 10306 10299 10297 10286 10271 10267 10262 10250 10237 10229 10230 10230 10220 10209 10202 10194 10184 10176 10168 10160 10153 10149 10146 10143 10140 10138 10137 10134 10129 10125 10122 10119 10118 10116 10115 10112 10108 10105 10102 10101 10100 10100 10100 10101 10101 10101 10101 10102 10104 10106 10108 10109 10110 10111 10114 10116 10119 10121 10123 10125 10128 10130 10134 10137 10141 10145 10149 10153 10156 10159
10440 10427 10417 10411 10403 10394 10388 10380 10369 10357 10347 10338 10332 10325 10316 10308 10296 10283 10280 10278 10266 10257 10255 10244 10224 10213 10214 10212 10205 10199 10193 10185 10176 10166 10158 10150 10143 10137 10131 10125 10121 10118 10117 10116 10113 10110 10108 10106 10104 10101 10099 10095 10091 10089 10087 10086 10085 10084 10084 10083 10083 10083 10083 10084 10084 10085 10087 10088 10090 10092 10094 10096 10098 10101 10103 10105 10107 10110 10113 10116 10119 10123 10128 10132 10136 10139
10430 10420 10408 10400 10394 10386 10377 10370 10361 10349 10336 10325 10317 10309 10301 10295 10288 10274 10262 10258 10251 10243 10243 10238 10215 10199 10199 10194 10186 10184 10179 10172 10165 10156 10146 10138 10132 10127 10121 10114 10108 10103 10100 10097 10095 10093 10092 10092 10090 10087 10083 10079 10075 10074 10072 10071 10069 10068 10067 10066 10066 10066 10066 10066 10065 10065 10066 10068 10070 10072 10074 10076 10078 10080 10083 10085 10088 10090 10093 10096 10099 10102 10107 10111 10116 10120
10417 10410 10400 10388 10379 10373 10366 10359 10353 10344 10334 10322 10312 10302 10292 10284 10279 10270 10255 10242 10233 10222 10219 10221 10208 10190 10187 10182 10173 10170 10165 10157 10152 10145 10136 10126 10120 10115 10109 10103 10097 10091 10087 10083 10080 10077 10075 10074 10073 10070 10067 10063 10061 10060 10059 10057 10054 10052 10051 10050 10049 10049 10049 10048 10048 10047 10048 10050 10051 10052 10054 10056 10058 10060 10063 10065 10068 10071 10074 10077 10080 10083 10086 10090 10095 10100
10405 10399 10391 10380 10368 10359 10352 10346 10340 10335 10328 10321 10312 10302 10291 10282 10274 10267 10255 10238 10224 10213 10204 10203 10196 10182 10174 10168 10160 10156 10151 10145 10141 10135 10126 10116 10108 10103 10097 10091 10086 10080 10075 10071 10066 10063 10060 10057 10055 10052 10050 10049 10048 10047 10045 10043 10041 10037 10036 10035 10033 10032 10031 10030 10029 10030 10031 10033 10034 10035 10036 10038 10039 10041 10044 10046 10049 10051 10054 10057 10061 10064 10067 10071 10075 10079
10396 10388 10381 10372 10360 10349 10342 10333 10324 10316 10308 10301 10295 10287 10277 10269 10262 10257 10251 10237 10221 10209 10199 10191 10182 10170 10160 10152 10146 10142 10137 10132 10128 10123 10116 10106 10096 10090 10084 10078 10073 10069 10064 10059 10055 10051 10047 10043 10040 10037 10036 10035 10034 10033 10031 10029 10027 10024 10022 10021 10020 10019 10017 10014 10013 10013 10014 10016 10018 10019 10020 10021 10022 10023 10025 10028 10031 10033 10036 10038 10041 10044 10047 10052 10056 10059
10387 10380 10371 10361 10348 10335 10327 10321 10311 10301 10293 10285 10277 10269 10259 10251 10244 10237 10234 10227 10214 10201 10192 10184 10172 10159 10149 10140 10131 10127 10122 10116 10112 10108 10103 10096 10086 10079 10073 10067 10061 10057 10052 10048 10043 10039 10034 10030 10027 10024 10021 10019 10017 10017 10015 10014 10012 10010 10009 10007 10006 10006 10004 10002 10000 10000 10000 10001 10002 10002 10003 10004 10005 10006 10008 10010 10013 10016 10019 10021 10022 10023 10027 10032 10037 10040
10374 10368 10363 10357 10345 10330 10318 10311 10303 10292 10284 10278 10270 10261 10250 10241 10233 10225 10218 10211 10201 10187 10178 10174 10167 10154 10143 10133 10121 10113 10107 10099 10095 10091 10088 10083 10076 10069 10062 10056 10051 10046 10041 10036 10031 10026 10022 10018 10014 10011 10008 10005 10003 10001 10000 9998 9996 9995 9994 9993 9992 9991 9990 9989 9988 9988 9987 9986 9986 9986 9985 9985 9986 9988 9991 9994 9997 10000 10002 10003 10005 10006 10009 10012 10016 10020
10361 10353 10349 10347 10343 10333 10323 10315 10306 10294 10283 10273 10265 10256 10246 10235 10224 10217 10211 10201 10191 10179 10165 10160 10157 10145 10133 10122 10111 10102 10094 10087 10081 10076 10071 10068 10063 10058 10051 10045 10040 10035 10030 10025 10020 10015 10010 10005 10001 9998 9995 9992 9990 9988 9985 9982 9981 9980 9979 9978 9977 9977 9977 9976 9975 9975 9973 9971 9970 9970 9969 9969 9969 9971 9974 9978 9981 9984 9986 9986 9987 9989 9992 9995 9997 9999
10352 10342 10334 10330 10327 10320 10314 10307 10299 10290 10278 10266 10255 10245 10235 10226 10215 10207 10202 10192 10183 10173 10157 10143 10141 10136 10125 10113 10104 10094 10085 10078 10073 10066 10060 10054 10050 10045 10040 10034 10029 10023 10018 10013 10008 10003 9998 9994 9990 9986 9982 9980 9977 9975 9972 9969 9967 9965 9964 9963 9962 9962 9962 9961 9960 9959 9958 9957 9956 9956 9956 9956 9956 9957 9958 9960 9963 9967 9969 9970 9971 9972 9974 9977 9980 9982
10345 10334 10324 10317 10312 10303 10295 10288 10280 10272 10264 10255 10245 10234 10224 10215 10204 10195 10190 10181 10171 10165 10153 10135 10125 10123 10117 10107 10098 10091 10081 10073 10067 10060 10052 10046 10041 10035 10028 10022 10017 10011 10006 10001 9996 9991 9986 9982 9978 9974 9971 9968 9965 9962 9959 9956 9954 9952 9950 9948 9947 9947 9947 9945 9944 9943 9943 9944 9944 9944 9943 9942 9942 9942 9942 9943 9945 9948 9951 9954 9955 9955 9957 9959 9962 9966
10338 10329 10317 10308 10302 10293 10284 10276 10268 10258 10251 10244 10236 10227 10217 10206 10195 10187 10181 10172 10162 10154 10148 10136 10120 10111 10108 10101 10092 10084 10077 10069 10062 10055 10047 10041 10035 10028 10021 10014 10008 10002 9996 9991 9986 9982 9977 9972 9967 9963 9960 9957 9954 9951 9947 9944 9942 9940 9938 9935 9934 9933 9932 9931 9930 9929 9929 9930 9931 9931 9930 9930 9928 9928 9928 9928 9928 9930 9932 9935 9937 9939 9940 9942 9944 9948
10332 10323 10312 10300 10292 10284 10274 10266 10259 10249 10240 10233 10227 10219 10209 10198 10187 10180 10175 10166 10156 10146 10138 10133 10121 10106 10100 10096 10087 10078 10069 10061 10056 10049 10041 10034 10027 10020 10013 10006 10000 9994 9988 9982 9976 9972 9968 9963 9958 9953 9949 9945 9942 9940 9937 9934 9931 9929 9926 9924 9922 9920 9919 9918 9918 9917 9917 9917 9916 9916 9916 9916 9916 9915 9915 9915 9914 9914 9915 9916 9918 9921 9924 9926 9928 9931
10325 10317 10307 10295 10285 10276 10267 10258 10251 10243 10235 10227 10219 10210 10202 10192 10181 10174 10169 10161 10152 10142 10131 10125 10119 10105 10092 10085 10079 10071 10061 10052 10046 10040 10031 10024 10018 10012 10004 9997 9990 9984 9978 9972 9967 9962 9957 9953 9948 9943 9939 9935 9931 9928 9926 9923 9920 9918 9914 9912 9910 9909 9908 9908 9907 9905 9904 9903 9903 9903 9902 9902 9902 9902 9902 9902 9901 9901 9901 9900 9901 9903 9906 9909 9913 9915
10317 10310 10302 10291 10280 10272 10263 10254 10246 10238 10230 10222 10215 10204 10196 10189 10176 10165 10161 10155 10146 10139 10127 10117 10111 10103 10091 10079 10069 10060 10051 10042 10036 10031 10023 10015 10008 10003 9997 9989 9981 9975 9969 9964 9958 9953 9948 9944 9939 9935 9930 9926 9922 9918 9915 9912 9909 9906 9903 9900 9899 9898 9897 9897 9896 9893 9892 9890 9889 9889 9889 9888 9888 9888 9888 9888 9888 9888 9887 9887 9887 9887 9889 9891 9895 9899
10309 10302 10295 10287 10277 10268 10261 10253 10243 10234 10225 10216 10210 10202 10192 10184 10171 10157 10152 10147 10139 10133 10125 10114 10103 10094 10085 10075 10064 10051 10040 10032 10027 10022 10017 10010 10001 9995 9990 9983 9974 9966 9959 9954 9948 9943 9938 9934 9929 9926 9921 9917 9913 9909 9906 9902 9898 9894 9891 9889 9887 9886 9885 9885 9883 9881 9880 9879 9878 9877 9876 9876 9875 9874 9874 9874 9875 9875 9875 9874 9874 9874 9875 9876 9878 9881
10302 10295 10288 10281 10274 10264 10257 10249 10240 10231 10222 10212 10204 10197 10186 10178 10166 10152 10145 10140 10130 10122 10117 10109 10098 10086 10075 10066 10059 10048 10034 10023 10018 10012 10005 9999 9992 9985 9979 9974 9967 9958 9950 9944 9938 9933 9928 9923 9919 9915 9912 9907 9903 9899 9896 9892 9888 9884 9881 9879 9877 9875 9874 9872 9870 9869 9867 9866 9866 9865 9865 9865 9863 9861 9860 9860 9861 9862 9862 9862 9861 9861 9862 9863 9864 9866
10295 10288 10281 10274 10268 10260 10251 10244 10236 10227 10218 10208 10198 10189 10179 10172 10163 10149 10137 10133 10126 10114 10105 10097 10087 10078 10068 10057 10049 10041 10027 10013 10005 9999 9990 9983 9978 9973 9966 9961 9956 9949 9942 9935 9929 9924 9918 9913 9908 9905 9902 9898 9894 9890 9886 9882 9878 9873 9870 9869 9867 9865 9862 9860 9858 9856 9855 9854 9853 9853 9852 9852 9851 9849 9848 9848 9848 9848 9848 9848 9849 9849 9848 9849 9850 9852
10288 10281 10274 10266 10259 10252 10244 10237 10231 10222 10209 10197 10188 10181 10173 10166 10160 10148 10132 10123 10118 10108 10096 10087 10077 10068 10059 10049 10041 10034 10021 10004 9992 9987 9981 9973 9967 9962 9956 9951 9946 9940 9934 9927 9921 9915 9910 9905 9900 9895 9891 9888 9884 9880 9877 9872 9868 9864 9861 9859 9858 9855 9852 9850 9847 9845 9844 9843 9842 9841 9840 9839 9838 9837 9836 9836 9836 9836 9835 9835 9835 9835 9835 9836 9837 9839
10281 10273 10266 10258 10251 10245 10237 10228 10221 10213 10202 10189 10179 10174 10166 10157 10153 10146 10131 10116 10107 10100 10090 10081 10072 10061 10051 10043 10034 10027 10017 10002 9988 9980 9974 9966 9959 9954 9947 9942 9938 9933 9927 9920 9913 9907 9902 9897 9893 9888 9883 9878 9874 9870 9866 9862 9858 9855 9852 9850 9848 9845 9842 9840 9837 9835 9834 9832 9831 9830 9828 9827 9826 9824 9824 9824 9824 9824 9823 9823 9822 9821 9822 9822 9823 9825
10274 10265 10258 10251 10243 10236 10230 10221 10213 10207 10199 10188 10176 10168 10159 10149 10142 10138 10128 10114 10101 10092 10084 10075 10066 10056 10046 10036 10028 10021 10015 10003 9987 9976 9969 9960 9953 9947 9940 9932 9927 9923 9919 9913 9906 9899 9894 9889 9885 9881 9876 9871 9866 9861 9857 9852 9848 9845 9842 9840 9838 9835 9832 9830 9828 9826 9823 9821 9820 9818 9817 9816 9815 9813 9812 9812 9812 9811 9811 9811 9810 9810 9810 9810 9810 9812
10267 10258 10249 10242 10233 10226 10219 10211 10202 10197 10191 10181 10170 10160 10151 10142 10133 10125 10118 10108 10097 10087 10078 10068 10058 10050 10040 10031 10021 10014 10010 10003 9989 9976 9966 9957 9948 9941 9934 9926 9919 9913 9909 9905 9900 9893 9886 9881 9876 9873 9869 9864 9858 9853 9849 9844 9839 9836 9832 9830 9828 9825 9822 9819 9818 9816 9814 9811 9809 9807 9806 9805 9804 9802 9801 9801 9801 9800 9799 9799 9799 9799 9799 9798 9798 9799
10261 10252 10243 10234 10224 10215 10208 10198 10187 10180 10176 10168 10158 10150 10142 10132 10122 10113 10107 10101 10092 10080 10070 10061 10052 10043 10034 10024 10014 10003 9997 9994 9988 9977 9966 9957 9946 9937 9930 9923 9914 9906 9899 9894 9891 9886 9879 9873 9868 9864 9860 9856 9850 9844 9840 9836 9831 9828 9824 9821 9818 9815 9812 9809 9807 9806 9804 9801 9799 9797 9795 9795 9793 9792 9791 9791 9790 9789 9788 9787 9787 9788 9788 9787 9787 9787
10254 10245 10236 10227 10217 10206 10199 10192 10180 10170 10164 10157 10148 10139 10132 10122 10112 10101 10093 10086 10079 10068 10058 10049 10042 10033 10024 10015 10006 9995 9984 9979 9975 9970 9962 9954 9944 9934 9925 9917 9909 9901 9893 9886 9880 9876 9870 9865 9860 9855 9850 9847 9842 9836 9831 9826 9822 9819 9815 9812 9809 9807 9803 9801 9798 9796 9795 9792 9789 9787 9785 9784 9783 9781 9780 9780 9780 9779 9778 9776 9775 9776 9777 9777 9776 9777
10248 10239 10229 10220 10212 10200 10191 10185 10177 10166 10158 10150 10140 10130 10121 10111 10102 10093 10082 10072 10065 10056 10047 10038 10031 10025 10017 10007 9998 9990 9980 9970 9963 9957 9951 9944 9937 9928 9919 9911 9902 9894 9886 9878 9871 9866 9860 9855 9850 9846 9842 9837 9833 9827 9822 9818 9813 9809 9805 9802 9800 9797 9794 9792 9789 9787 9785 9783 9780 9777 9775 9774 9773 9771 9770 9770 9769 9769 9768 9766 9764 9765 9766 9766 9766 9766
10240 10233 10223 10213 10205 10195 10185 10176 10169 10161 10154 10145 10134 10123 10113 10103 10095 10087 10077 10066 10058 10051 10042 10033 10025 10020 10013 10003 9993 9984 9976 9967 9958 9949 9941 9934 9927 9920 9912 9904 9896 9888 9880 9872 9865 9858 9852 9846 9840 9837 9834 9830 9825 9820 9815 9810 9805 9800 9796 9792 9790 9787 9785 9782 9780 9778 9776 9774 9771 9769 9767 9765 9763 9761 9760 9760 9759 9759 9758 9757 9755 9754 9755 9755 9755 9756
10231 10226 10217 10207 10197 10188 10178 10168 10157 10148 10142 10136 10126 10116 10109 10100 10091 10084 10076 10065 10055 10046 10039 10031 10022 10014 10008 10000 9991 9981 9972 9963 9953 9942 9933 9925 9917 9910 9902 9894 9888 9881 9874 9867 9860 9853 9846 9839 9833 9827 9824 9822 9818 9813 9807 9802 9797 9792 9788 9784 9781 9779 9776 9773 9770 9768 9767 9765 9762 9760 9758 9756 9754 9752 9750 9750 9749 9749 9749 9747 9746 9745 9745 9745 9745 9745
10225 10218 10210 10200 10191 10181 10170 10161 10150 10136 10128 10126 10120 10110 10102 10094 10085 10078 10071 10062 10052 10042 10034 10026 10017 10008 10001 9994 9986 9976 9967 9957 9947 9937 9927 9919 9911 9903 9895 9887 9879 9873 9866 9860 9854 9848 9841 9835 9828 9821 9815 9812 9809 9805 9800 9796 9790 9784 9780 9777 9773 9770 9768 9765 9761 9759 9757 9755 9753 9751 9750 9748 9746 9743 9742 9741 9740 9739 9739 9738 9737 9736 9735 9735 9736 9736
10220 10212 10205 10195 10186 10176 10164 10156 10148 10134 10122 10118 10113 10105 10097 10088 10077 10068 10061 10053 10044 10035 10027 10020 10012 10003 9994 9987 9980 9970 9960 9951 9942 9931 9922 9913 9905 9897 9888 9880 9872 9865 9859 9853 9847 9842 9835 9828 9822 9815 9809 9804 9800 9796 9792 9788 9783 9778 9773 9770 9766 9762 9759 9756 9753 9750 9748 9746 9743 9742 9740 9739 9738 9735 9733 9732 9731 9730 9729 9729 9728 9727 9726 9726 9727 9727
10214 10205 10200 10191 10181 10173 10164 10154 10145 10133 10120 10111 10106 10098 10090 10081 10070 10060 10052 10044 10035 10027 10019 10012 10005 9997 9987 9979 9972 9963 9953 9945 9936 9926 9915 9907 9899 9890 9882 9874 9865 9858 9852 9847 9841 9834 9827 9820 9814 9808 9802 9797 9792 9788 9784 9780 9776 9771 9766 9762 9759 9755 9751 9748 9746 9743 9740 9737 9734 9732 9731 9730 9729 9727 9725 9723 9722 9721 9720 9720 9719 9719 9717 9717 9718 9718
10207 10198 10192 10185 10175 10167 10159 10152 10142 10130 10117 10107 10101 10092 10082 10074 10065 10055 10046 10038 10029 10021 10013 10005 9997 9989 9979 9970 9962 9955 9946 9937 9929 9920 9910 9900 9893 9885 9876 9868 9861 9854 9846 9839 9833 9826 9819 9812 9806 9800 9795 9790 9785 9781 9776 9772 9768 9764 9760 9755 9751 9747 9743 9741 9738 9736 9733 9729 9726 9724 9722 9721 9720 9718 9717 9715 9713 9712 9711 9711 9711 9710 9709 9708 9708 9709
10200 10190 10184 10179 10171 10160 10151 10146 10139 10129 10115 10102 10093 10086 10076 10068 10059 10049 10040 10032 10023 10014 10006 9998 9988 9980 9971 9961 9953 9945 9937 9928 9920 9912 9903 9893 9885 9878 9870 9863 9856 9848 9840 9832 9825 9818 9812 9806 9800 9794 9789 9784 9778 9773 9769 9764 9760 9757 9753 9748 9744 9740 9736 9733 9730 9728 9726 9722 9719 9717 9715 9713 9711 9710 9709 9707 9705 9704 9703 9702 9702 9702 9701 9700 9700 9700
10192 10182 10173 10169 10163 10154 10143 10136 10130 10122 10112 10099 10088 10080 10072 10063 10054 10044 10034 10026 10017 10008 9999 9990 9980 9970 9961 9952 9944 9936 9928 9919 9910 9902 9893 9885 9877 9871 9864 9856 9848 9840 9832 9825 9818 9812 9806 9801 9795 9789 9783 9777 9772 9766 9761 9757 9753 9749 9745 9741 9737 9733 9728 9725 9723 9721 9718 9715 9712 9710 9707 9705 9704 9702 9700 9699 9698 9696 9695 9694 9693 9693 9693 9692 9691 9691
10184 10175 10165 10158 10153 10145 10134 10125 10117 10109 10102 10093 10082 10073 10065 10057 10049 10039 10029 10020 10012 10002 9993 9985 9974 9963 9952 9942 9934 9927 9919 9911 9903 9894 9885 9876 9869 9862 9856 9849 9841 9833 9825 9818 9812 9805 9799 9793 9788 9783 9777 9771 9765 9759 9754 9749 9744 9741 9738 9734 9729 9725 9721 9717 9715 9714 9711 9708 9705 9703 9700 9698 9696 9695 9693 9691 9690 9689 9687 9685 9684 9685 9685 9684 9683 9683
10177 10168 10158 10149 10143 10136 10126 10117 10109 10099 10091 10084 10074 10064 10056 10050 10041 10032 10023 10014 10006 9996 9986 9978 9968 9958 9946 9936 9927 9919 9912 9904 9896 9887 9878 9869 9860 9854 9847 9840 9833 9826 9819 9811 9805 9799 9792 9785 9780 9775 9770 9764 9759 9753 9747 9742 9737 9733 9730 9726 9722 9718 9714 9710 9707 9706 9704 9701 9699 9696 9693 9690 9689 9687 9686 9684 9683 9681 9680 9678 9676 9676 9676 9676 9675 9675